Location: Hermaringen
(48.5952°N, 10.2585°E)
Time: 11:00:59
(UTC+00:00)

Courier 1B - Pass Details

Date: 22 February 2026
Orbit: 962 x 1208 km, 28.3° (Epoch: 7 March)

Event Time Altitude Azimuth Distance (km) Brightness Sun altitude
Rises 20:59:06 0° 242° (WSW) 3,934 10.9 -39.8°
Enters shadow 21:02:01 - 227° (SW) 3,336 10.3 -40.2°
Reaches altitude 10° 21:04:25 10° 211° (SSW) 3,037 - -40.5°
Maximum altitude 21:06:28 11° 195° (SSW) 2,964 - -40.8°
Drops below altitude 10° 21:08:32 10° 179° (S) 3,076 - -41.1°
Sets 21:14:03 0° 147° (SSE) 4,078 - -41.7°
